KX4BI Weather Reports


time (UTC)temp
F
wind
direction
speed
knots
gust
knots
rain 1hr
in
rain 24hr
in
rain mn
in
humidity
%
barometer
mb
20260904215504 84 14 0.0 0.9 0.00 0.00 0.00 67 1014.7
20260904215004 84 22 0.0 0.9 0.00 0.00 0.00 66 1014.7
20260904214523 84 22 0.0 1.7 0.00 0.00 0.00 65 1014.7
20260904214003 84 22 0.0 1.7 0.00 0.00 0.00 65 1014.8
20260904213504 84 290 0.0 2.6 0.00 0.00 0.00 66 1014.9
20260904213017 84 324 0.0 3.5 0.00 0.00 0.00 65 1014.9
20260904212509 85 285 1.7 3.5 0.00 0.00 0.00 63 1015.0
20260904212012 85 4 0.9 2.6 0.00 0.00 0.00 63 1014.8
20260904211528 85 4 0.9 3.5 0.00 0.00 0.00 62 1014.8
20260904211010 86 353 0.9 5.2 0.00 0.00 0.00 61 1014.6
20260904210514 86 18 0.9 5.2 0.00 0.00 0.00 60 1014.7
20260904210026 87 339 1.7 2.6 0.00 0.00 0.00 60 1014.7
20260904205506 87 258 0.9 3.5 0.00 0.00 0.00 60 1014.9
20260904205003 88 278 1.7 3.5 0.00 0.00 0.00 58 1015.2
20260904204505 89 283 1.7 3.5 0.00 0.00 0.00 56 1015.2
20260904204004 89 3 1.7 5.2 0.00 0.00 0.00 55 1015.0
20260904203504 90 16 2.6 5.2 0.00 0.00 0.00 55 1015.1
20260904203015 91 15 2.6 6.1 0.00 0.00 0.00 55 1015.1
20260904202510 91 338 1.7 6.1 0.00 0.00 0.00 54 1015.1
20260904202006 93 301 3.5 6.1 0.00 0.00 0.00 54 1015.3
20260904201526 93 57 2.6 7.8 0.00 0.00 0.00 55 1015.5
20260904201007 93 17 3.5 8.7 0.00 0.00 0.00 52 1015.5
20260904200509 93 3 1.7 9.6 0.00 0.00 0.00 52 1015.5
20260904200024 95 302 3.5 9.6 0.00 0.00 0.00 50 1015.6
20260904195510 95 83 2.6 7.0 0.00 0.00 0.00 51 1015.6
20260904195012 94 81 4.3 7.0 0.00 0.00 0.00 52 1015.5
20260904194533 95 103 2.6 6.1 0.00 0.00 0.00 50 1015.5
20260904194003 95 30 1.7 5.2 0.00 0.00 0.00 53 1015.5
20260904193503 95 111 1.7 6.1 0.00 0.00 0.00 54 1015.6
20260904193006 94 76 2.6 6.1 0.00 0.00 0.00 54 1015.8
20260904192503 93 326 0.9 1.7 0.00 0.00 0.00 57 1015.8
20260904192005 92 342 0.0 0.9 0.00 0.00 0.00 56 1015.8
20260904191533 93 311 0.0 0.9 0.00 0.00 0.00 53 1015.9
20260904191004 93 310 0.0 0.9 0.00 0.00 0.00 53 1015.8
20260904190507 93 239 0.0 0.9 0.00 0.00 0.00 55 1015.8
20260904190014 94 239 0.0 1.7 0.00 0.00 0.00 53 1015.9
20260904185508 94 239 0.0 1.7 0.00 0.00 0.00 48 1016.1
20260904185010 94 228 0.9 2.6 0.00 0.00 0.00 48 1016.1
20260904184528 94 193 0.9 2.6 0.00 0.00 0.00 53 1016.1
20260904184012 94 233 0.9 2.6 0.00 0.00 0.00 52 1016.2
20260904183514 94 240 0.0 2.6 0.00 0.00 0.00 48 1016.3
20260904183027 94 120 0.0 1.7 0.00 0.00 0.00 53 1016.3
20260904182503 94 12 0.0 3.5 0.00 0.00 0.00 50 1016.4
20260904182007 94 103 1.7 3.5 0.00 0.00 0.00 48 1016.5
20260904181506 94 41 0.9 6.1 0.00 0.00 0.00 48 1016.5
20260904181008 95 67 1.7 6.1 0.00 0.00 0.00 47 1016.5
20260904180506 96 86 3.5 6.1 0.00 0.00 0.00 47 1016.4
20260904180018 95 262 3.5 5.2 0.00 0.00 0.00 48 1016.5
20260904175507 95 304 1.7 4.3 0.00 0.00 0.00 49 1016.5
20260904175008 95 270 2.6 5.2 0.00 0.00 0.00 51 1016.6
20260904174532 95 298 3.5 5.2 0.00 0.00 0.00 49 1016.7
20260904174010 95 64 2.6 5.2 0.00 0.00 0.00 50 1016.8
20260904173511 94 76 1.7 6.1 0.00 0.00 0.00 51 1016.9
20260904173023 94 85 4.3 6.1 0.00 0.00 0.00 49 1017.0
20260904172513 95 120 0.9 4.3 0.00 0.00 0.00 49 1017.0
20260904172016 95 108 1.7 6.1 0.00 0.00 0.00 47 1017.2
20260904171525 95 113 2.6 6.1 0.00 0.00 0.00 49 1017.2
20260904171014 94 143 1.7 4.3 0.00 0.00 0.00 54 1017.3
20260904170504 94 256 2.6 4.3 0.00 0.00 0.00 52 1017.3
20260904170007 94 222 1.7 4.3 0.00 0.00 0.00 48 1017.4
20260904165506 94 245 0.9 4.3 0.00 0.00 0.00 51 1017.4
20260904165006 94 242 0.9 4.3 0.00 0.00 0.00 52 1017.4
20260904164515 93 8 2.6 4.3 0.00 0.00 0.00 51 1017.6
20260904164011 94 311 0.9 3.5 0.00 0.00 0.00 55 1017.6
20260904163509 94 61 1.7 3.5 0.00 0.00 0.00 56 1017.7
20260904163018 94 90 1.7 3.5 0.00 0.00 0.00 56 1017.8
20260904162511 94 129 2.6 3.5 0.00 0.00 0.00 56 1017.8
20260904162013 93 134 1.7 3.5 0.00 0.00 0.00 57 1017.8
20260904161527 93 77 0.9 3.5 0.00 0.00 0.00 58 1017.8
20260904161018 92 106 0.9 3.5 0.00 0.00 0.00 56 1017.8
20260904160514 92 89 1.7 3.5 0.00 0.00 0.00 56 1017.8
20260904160029 92 109 1.7 4.3 0.00 0.00 0.00 59 1017.8
20260904155513 92 105 2.6 4.3 0.00 0.00 0.00 58 1017.8
20260904155004 92 76 0.0 4.3 0.00 0.00 0.00 59 1017.9
20260904154508 91 159 1.7 4.3 0.00 0.00 0.00 59 1017.9
20260904154010 91 120 2.6 4.3 0.00 0.00 0.00 60 1017.9
20260904153506 91 96 1.7 3.5 0.00 0.00 0.00 57 1017.8
20260904153028 91 228 0.9 4.3 0.00 0.00 0.00 60 1017.7
20260904152507 90 155 2.6 4.3 0.00 0.00 0.00 59 1017.8
20260904152006 90 79 2.6 4.3 0.00 0.00 0.00 63 1017.7
20260904151527 90 74 2.6 4.3 0.00 0.00 0.00 62 1017.8
20260904151016 90 86 1.7 2.6 0.00 0.00 0.00 58 1017.8
20260904150510 90 118 0.9 2.6 0.00 0.00 0.00 62 1017.8
20260904150035 90 234 0.0 2.6 0.00 0.00 0.00 63 1017.6
20260904145514 89 142 0.9 3.5 0.00 0.00 0.00 60 1017.6
20260904145016 89 214 1.7 3.5 0.00 0.00 0.00 61 1017.4
20260904144530 89 245 0.9 2.6 0.00 0.00 0.00 62 1017.4
20260904144018 88 86 0.9 2.6 0.00 0.00 0.00 63 1017.3
20260904143505 88 89 0.9 2.6 0.00 0.00 0.00 65 1017.3
20260904143020 88 148 0.9 2.6 0.00 0.00 0.00 64 1017.4
20260904142509 88 216 0.9 3.5 0.00 0.00 0.00 67 1017.4
20260904142007 87 179 0.9 3.5 0.00 0.00 0.00 66 1017.6
20260904141531 87 147 1.7 2.6 0.00 0.00 0.00 67 1017.7
20260904141008 87 124 0.9 1.7 0.00 0.00 0.00 67 1017.6
20260904140508 87 146 0.9 1.7 0.00 0.00 0.00 69 1017.6
20260904140032 87 162 0.0 1.7 0.00 0.00 0.00 70 1017.5
20260904135512 86 137 0.0 1.7 0.00 0.00 0.00 71 1017.6
20260904135014 85 213 0.0 1.7 0.00 0.00 0.00 73 1017.6
20260904134505 85 134 0.0 0.9 0.00 0.00 0.00 74 1017.7
20260904134004 84 104 0.0 1.7 0.00 0.00 0.00 75 1017.7
20260904133504 83 99 0.9 1.7 0.00 0.00 0.00 74 1017.6
20260904133017 83 107 0.9 1.7 0.00 0.00 0.00 76 1017.5
20260904132507 82 96 0.9 1.7 0.00 0.00 0.00 76 1017.6
20260904132006 82 114 0.9 1.7 0.00 0.00 0.00 76 1017.6
20260904131534 81 96 0.9 1.7 0.00 0.00 0.00 80 1017.6
20260904131010 81 105 0.9 1.7 0.00 0.00 0.00 80 1017.6
20260904130512 81 114 0.0 0.9 0.00 0.00 0.00 81 1017.6
20260904130020 81 114 0.0 0.9 0.00 0.00 0.00 81 1017.5
20260904125514 80 356 0.0 0.9 0.00 0.00 0.00 83 1017.5
20260904125011 80 355 0.0 0.0 0.00 0.00 0.00 84 1017.4
20260904124526 78 355 0.0 0.9 0.00 0.00 0.00 85 1017.4
20260904124014 78 355 0.0 1.7 0.00 0.00 0.00 87 1017.4
20260904123506 77 355 0.9 1.7 0.00 0.00 0.00 86 1017.3
20260904123006 76 6 0.9 1.7 0.00 0.00 0.00 88 1017.2
20260904122505 76 8 0.0 1.7 0.00 0.00 0.00 88 1017.2
20260904122003 76 8 1.7 1.7 0.00 0.00 0.00 89 1017.2
20260904121511 75 9 0.9 1.7 0.00 0.00 0.00 89 1017.2
20260904121006 75 9 1.7 1.7 0.00 0.00 0.00 90 1017.0
20260904120505 75 7 1.7 1.7 0.00 0.00 0.00 91 1017.0
20260904120022 74 7 0.9 0.9 0.00 0.00 0.00 92 1016.9
20260904115512 74 7 0.0 0.0 0.00 0.00 0.00 93 1016.8
20260904115010 73 7 0.0 0.0 0.00 0.00 0.00 93 1016.8
20260904114519 73 7 0.0 0.0 0.00 0.00 0.00 94 1016.8
20260904114013 73 7 0.0 0.0 0.00 0.00 0.00 94 1016.7
20260904113513 73 7 0.0 0.0 0.00 0.00 0.00 94 1016.7
20260904113038 73 7 0.0 0.0 0.00 0.00 0.00 94 1016.6
20260904112514 73 7 0.0 0.0 0.00 0.00 0.00 94 1016.6
20260904112004 72 7 0.0 0.0 0.00 0.00 0.00 94 1016.5
20260904111508 72 7 0.0 0.0 0.00 0.00 0.00 94 1016.5
20260904111006 72 7 0.0 0.0 0.00 0.00 0.00 93 1016.5
20260904110507 72 7 0.0 0.0 0.00 0.00 0.00 93 1016.5
20260904110014 73 7 0.0 0.0 0.00 0.00 0.00 93 1016.6
20260904105509 73 7 0.0 0.0 0.00 0.00 0.00 93 1016.5
20260904105009 73 7 0.0 0.0 0.00 0.00 0.00 93 1016.5
20260904104517 73 7 0.0 0.0 0.00 0.00 0.00 93 1016.5
20260904104010 73 7 0.0 0.0 0.00 0.00 0.00 93 1016.4
20260904103512 73 7 0.0 0.0 0.00 0.00 0.00 93 1016.4
20260904103023 73 7 0.0 0.0 0.00 0.00 0.00 93 1016.4
20260904102514 73 7 0.0 0.0 0.00 0.00 0.00 92 1016.4
20260904102013 73 7 0.0 0.0 0.00 0.00 0.00 92 1016.3
20260904101528 73 7 0.0 0.0 0.00 0.00 0.00 91 1016.3
20260904101020 73 7 0.0 0.0 0.00 0.00 0.00 91 1016.3
20260904100507 74 7 0.0 0.9 0.00 0.00 0.00 90 1016.2
20260904100008 74 7 0.0 0.9 0.00 0.00 0.00 90 1016.2
20260904095505 74 7 0.0 0.9 0.00 0.00 0.00 90 1016.2
20260904095007 74 7 0.0 1.7 0.00 0.00 0.00 90 1016.2
20260904094528 75 7 0.0 1.7 0.00 0.00 0.00 90 1016.1
20260904094008 75 7 0.9 2.6 0.00 0.00 0.00 90 1016.1
20260904093511 74 336 0.9 2.6 0.00 0.00 0.00 91 1016.1
20260904093025 74 1 1.7 2.6 0.00 0.00 0.00 91 1016.0
20260904092512 74 27 0.9 0.9 0.00 0.00 0.00 91 1016.1
20260904092012 74 27 0.0 1.7 0.00 0.00 0.00 90 1016.0
20260904091527 74 27 0.9 1.7 0.00 0.00 0.00 91 1016.0
20260904091013 74 32 0.9 0.9 0.00 0.00 0.00 91 1016.0
20260904090515 74 34 0.0 0.9 0.00 0.00 0.00 91 1016.0
20260904090032 74 34 0.0 0.0 0.00 0.00 0.00 91 1016.0
20260904085516 74 34 0.0 0.0 0.00 0.00 0.00 91 1016.0
20260904085003 74 34 0.0 0.0 0.00 0.00 0.00 90 1016.0
20260904084512 75 34 0.0 0.9 0.00 0.00 0.00 90 1015.9
20260904084010 75 34 0.0 0.9 0.00 0.00 0.00 90 1015.9
20260904083508 75 34 0.0 0.9 0.00 0.00 0.00 90 1015.8
20260904083028 75 34 0.0 0.0 0.00 0.00 0.00 90 1015.8
20260904082510 75 34 0.0 0.0 0.00 0.00 0.00 90 1015.8
20260904082011 75 34 0.0 0.9 0.00 0.00 0.00 90 1015.7
20260904081525 75 34 0.0 0.9 0.00 0.00 0.00 90 1015.6
20260904081013 75 34 0.0 0.0 0.00 0.00 0.00 90 1015.7
20260904080514 75 34 0.0 0.0 0.00 0.00 0.00 91 1015.7
20260904080028 74 34 0.0 0.0 0.00 0.00 0.00 91 1015.7
20260904075515 74 34 0.0 0.0 0.00 0.00 0.00 91 1015.6
20260904075017 74 34 0.0 0.0 0.00 0.00 0.00 90 1015.6
20260904074536 75 34 0.0 0.0 0.00 0.00 0.00 89 1015.6
20260904074013 75 34 0.0 0.0 0.00 0.00 0.00 89 1015.6
20260904073504 75 34 0.0 0.0 0.00 0.00 0.00 90 1015.6
20260904073014 75 34 0.0 0.0 0.00 0.00 0.00 90 1015.6
20260904072509 75 34 0.0 0.0 0.00 0.00 0.00 90 1015.6
20260904072013 75 34 0.0 0.0 0.00 0.00 0.00 89 1015.6
20260904071522 75 34 0.0 0.0 0.00 0.00 0.00 88 1015.6
20260904071011 76 34 0.0 0.0 0.00 0.00 0.00 88 1015.6
20260904070516 76 34 0.0 0.9 0.00 0.00 0.00 89 1015.6
20260904070025 75 34 0.0 0.9 0.00 0.00 0.00 89 1015.6
20260904065514 75 34 0.0 0.9 0.00 0.00 0.00 89 1015.7
20260904065014 75 34 0.0 0.9 0.00 0.00 0.00 89 1015.7
20260904064532 75 34 0.0 0.0 0.00 0.00 0.00 90 1015.7
20260904064021 75 34 0.0 0.0 0.00 0.00 0.00 90 1015.7
20260904063513 75 34 0.0 0.0 0.00 0.00 0.00 90 1015.8
20260904063029 75 34 0.0 0.0 0.00 0.00 0.00 89 1015.8
20260904062518 75 34 0.0 0.0 0.00 0.00 0.00 89 1015.9
20260904062007 76 34 0.0 0.0 0.00 0.00 0.00 88 1016.0
20260904061516 76 34 0.0 0.9 0.00 0.00 0.00 88 1016.1
20260904061009 76 34 0.0 0.9 0.00 0.00 0.00 87 1016.0
20260904060511 76 34 0.0 0.9 0.00 0.00 0.00 87 1016.0
20260904060035 76 34 0.0 0.9 0.00 0.00 0.00 87 1016.0
20260904055512 76 34 0.0 0.9 0.00 0.00 0.00 87 1016.0
20260904055014 76 34 0.9 0.9 0.00 0.00 0.00 87 1016.0
20260904054538 76 34 0.0 0.0 0.00 0.00 0.00 87 1016.1
20260904054014 76 34 0.0 0.0 0.00 0.00 0.00 87 1016.0
20260904053520 76 34 0.0 0.0 0.00 0.00 0.00 87 1015.9
20260904053041 76 34 0.0 0.0 0.00 0.00 0.00 87 1016.1
20260904052516 76 34 0.0 0.0 0.00 0.00 0.00 87 1016.0
20260904052019 76 34 0.0 0.9 0.00 0.00 0.00 86 1016.1
20260904051535 76 34 0.0 0.9 0.00 0.00 0.00 86 1016.1
20260904051016 77 34 0.0 0.9 0.00 0.00 0.00 86 1016.2
20260904050508 77 34 0.0 0.9 0.00 0.00 0.00 85 1016.2
20260904050033 77 34 0.0 0.0 0.00 0.00 0.00 85 1016.2
20260904045512 77 34 0.0 0.0 0.00 0.00 0.00 84 1016.2
20260904045013 77 34 0.0 0.0 0.00 0.00 0.00 84 1016.1
20260904044526 77 34 0.0 0.9 0.00 0.00 0.00 84 1016.2
20260904044014 78 34 0.0 0.9 0.00 0.00 0.00 85 1016.2
20260904043511 77 34 0.0 0.9 0.00 0.00 0.00 86 1016.2
20260904043040 77 34 0.0 0.9 0.00 0.00 0.00 86 1016.3
20260904042514 77 34 0.0 0.9 0.00 0.00 0.00 87 1016.3
20260904042015 77 35 0.0 0.0 0.00 0.00 0.00 88 1016.2
20260904041509 77 34 0.0 0.0 0.00 0.00 0.00 87 1016.3
20260904041006 77 35 0.0 0.0 0.00 0.00 0.00 86 1016.2
20260904040504 77 35 0.0 0.0 0.00 0.00 0.00 85 1016.1
20260904040014 77 34 0.0 0.0 0.00 0.00 0.00 85 1016.2
20260904035508 78 34 0.0 0.9 0.00 0.00 0.00 84 1016.2
20260904035010 78 34 0.0 0.9 0.00 0.00 0.00 84 1016.2
20260904034521 78 34 0.0 0.0 0.00 0.00 0.00 84 1016.3
20260904034010 79 34 0.0 0.9 0.00 0.00 0.00 82 1016.4
20260904033505 78 34 0.0 0.9 0.00 0.00 0.00 83 1016.5
20260904033015 79 34 0.0 0.9 0.00 0.00 0.00 82 1016.5
20260904032504 79 34 0.0 0.9 0.00 0.00 0.00 82 1016.5
20260904032003 79 34 0.0 0.9 0.00 0.00 0.00 82 1016.5
20260904031508 79 34 0.0 0.9 0.00 0.00 0.00 82 1016.6
20260904031004 79 34 0.0 0.0 0.00 0.00 0.00 82 1016.6
20260904030508 79 34 0.0 0.9 0.00 0.00 0.00 81 1016.5
20260904030010 80 34 0.0 0.9 0.00 0.00 0.00 80 1016.5
20260904025507 80 34 0.9 0.9 0.00 0.00 0.00 80 1016.4
20260904025006 80 34 0.9 0.9 0.00 0.00 0.00 79 1016.5
20260904024521 80 34 0.9 0.9 0.00 0.00 0.00 80 1016.6
20260904024012 79 35 0.0 0.9 0.00 0.00 0.00 80 1016.4
20260904023510 79 34 0.0 0.9 0.00 0.00 0.00 80 1016.4